Regional Weather Roundup
Issued by NWS

Home | Current Version | Previous Version | Text Only | Print | Product List | Glossary On
Versions: 1 2 3 4 5 6 7 8 9 10 11 12 13 14 15 16 17 18 19 20 21 22 23 24 25 26 27 28 29 30 31 32 33 34 35 36 37 38 39 40 41 42 43 44 45 46 47 48 49 50
000
ASUS45 KPSR 180400
RWRAZ

ARIZONA REGIONAL HOURLY WEATHER ROUNDUP
NATIONAL WEATHER SERVICE PHOENIX AZ
900 PM MST FRI APR 17 2015

NOTE: FAIR INDICATES FEW OR NO CLOUDS BELOW 12,000 FEET WITH NO
SIGNIFICANT WEATHER AND/OR OBSTRUCTIONS TO VISIBILITY.

AZZ001>003-036-180500-
NORTHWEST ARIZONA

CITY           SKY/WX    TMP DP  RH WIND       PRES   REMARKS
KINGMAN        CLEAR     50  22  33 SE8       30.02R
$$

AZZ004>008-015-016-018-180500-
NORTH CENTRAL ARIZONA

CITY           SKY/WX    TMP DP  RH WIND       PRES   REMARKS
GRAND CANYON   MOCLDY    33  26  75 CALM      30.11R
WILLIAMS       PTCLDY    37  25  60 S5        30.18S WCI  34
PRESCOTT       CLOUDY    51  25  36 SW5       30.08R
FLAGSTAFF      NOT AVBL
PAYSON         CLOUDY    54  18  24 SW5       30.09S
PAGE           CLOUDY    57  31  37 CALM      30.00R
$$

AZZ009>014-017-180500-
NORTHEAST ARIZONA

CITY           SKY/WX    TMP DP  RH WIND       PRES   REMARKS
WINSLOW        NOT AVBL
SAINT JOHNS    PTCLDY    46  24  42 W8        30.07R
WINDOW ROCK    MOCLDY    42  27  55 N5        30.06R
SHOW LOW       MOCLDY    41  19  42 S3        30.12R
$$

AZZ023-180500-
GREATER PHOENIX AREA

CITY           SKY/WX    TMP DP  RH WIND       PRES   REMARKS
PHOENIX        PTCLDY    74  23  15 SW6       29.92R
LUKE AFB       CLEAR     71  27  19 SW3       29.92R
DEER VALLEY    CLEAR     71  20  14 SW3       29.93R
SCOTTSDALE     CLEAR     71  22  15 CALM      29.95R
MESA-GATEWAY   CLEAR     64  27  24 SE5       29.97R
CHANDLER       PTCLDY    70  25  18 SE5       29.94
$$

AZZ027-028-180500-
SOUTHWEST MARICOPA COUNTY AND PINAL COUNTY

CITY           SKY/WX    TMP DP  RH WIND       PRES   REMARKS
CASA GRANDE    CLEAR     64  16  15 CALM      29.95R
GILA BEND      CLEAR     71  20  14 W6        29.93R
$$

AZZ503-504-507>509-180500-
SOUTHEAST ARIZONA

CITY           SKY/WX    TMP DP  RH WIND       PRES   REMARKS
TUCSON         CLEAR     66  18  15 N5        30.04R
DAVIS-MONTHAN  CLEAR     62  16  17 N3        30.02R
NOGALES        CLEAR     55  16  21 NE9       30.05R
SIERRA VISTA   CLEAR     53  14  21 W10       30.09S
SAFFORD        CLEAR     59  14  17 N12       30.02R
$$

AZZ020-021-025-026-031-180500-
SOUTHWEST ARIZONA

CITY           SKY/WX    TMP DP  RH WIND       PRES   REMARKS
YUMA           CLEAR     76  26  15 CALM      29.94R
$$

CAZ031-033-041-043-047-048-061-180500-
SOUTHERN CALIFORNIA

CITY           SKY/WX    TMP DP  RH WIND       PRES   REMARKS
DOWNTOWN L.A.  CLEAR     67  43  41 CALM      29.99R
L.A. AIRPORT   CLEAR     65  41  41 W10       30.00R
SAN DIEGO      CLEAR     69  39  33 N7        30.03R
BURBANK        CLEAR     71  19  14 W5        30.01R
ONTARIO        CLEAR     68  27  21 SW7       30.01R
RIVERSIDE      CLEAR     69  24  18 NW3       30.01R
PALM SPRINGS   CLEAR     79  20  11 CALM      29.95R
EL CENTRO NAS  CLEAR     71  31  22 SE8       29.91R
IMPERIAL       CLEAR     76  23  14 SE6       29.91R
BLYTHE         CLEAR     73  28  18 SW6       29.92R
$$

NVZ020-UTZ003-180500-
SOUTHERN NEVADA-UTAH

CITY           SKY/WX    TMP DP  RH WIND       PRES   REMARKS
LAS VEGAS      NOT AVBL
SALT LAKE CITY PTCLDY    53  37  54 SE9       30.03R
$$

NMZ009-TXZ055-180500-
NEW MEXICO-WEST TEXAS

CITY           SKY/WX    TMP DP  RH WIND       PRES   REMARKS
ALBUQUERQUE    CLOUDY    48  22  35 N13       30.06R
EL PASO        CLEAR     65   2   8 NW14      29.99R
$$


........................KEY........................
SKY/WX - SKY CONDITION/WEATHER
TMP    - TEMPERATURE IN FAHRENHEIT
DP     - DEW POINT IN FAHRENHEIT
RH     - RELATIVE HUMIDITY IN PERCENT
WIND   - DIRECTION AND SPEED IN MILES PER HOUR (MPH)
VRB    - VARIABLE WIND DIRECTION
PRES   - MEAN SEA LEVEL PRESSURE IN INCHES OF MERCURY
         F - FALLING PRESSURE   R - RISING PRESSURE
         S - STEADY PRESSURE
VSB    - VISIBILITY IN MILES
HX     - HEAT INDEX IN FAHRENHEIT
WCI    - WIND CHILL INDEX IN FAHRENHEIT
TC     - TEMPERATURE IN CELSIUS WHICH IS ALSO KNOWN AS
         TEMPERATURE IN CENTIGRADE
AFB    - AIR FORCE BASE
         LUKE AFB IS LUKE AIR FORCE BASE
         DAVIS-MONTHAN IS DAVIS-MONTHAN AIR FORCE BASE
NAS    - NAVAL AIR STATION
         EL CENTRO NAS IS EL CENTRO NAVAL AIR STATION
N/A    - NOT AVAILABLE



USA.gov is the U.S. government's official web portal to all federal, state and local government web resources and services.